| time (UTC) | temp F | wind direction | speed MPH | gust MPH | rain 1hr in | rain 24hr in | rain mn in | humidity % | barometer mb |
| 20260505153004 | 91 | 122 | 2.0 | 4.0 | 0.00 | 0.00 | 0.00 | 26 | 1013.5 |
| 20260505151505 | 93 | 125 | 1.0 | 3.0 | 0.00 | 0.00 | 0.00 | 26 | 1013.6 |
| 20260505124504 | 90 | 117 | 0.0 | 2.0 | 0.00 | 0.00 | 0.00 | 26 | 1015.0 |
| 20260505123004 | 89 | 125 | 0.0 | 3.0 | 0.00 | 0.00 | 0.00 | 26 | 1015.0 |
| 20260505121504 | 88 | 57 | 0.0 | 2.0 | 0.00 | 0.00 | 0.00 | 26 | 1015.0 |
| 20260505120004 | 85 | 346 | 0.0 | 2.0 | 0.00 | 0.00 | 0.00 | 26 | 1015.0 |
| 20260505114504 | 83 | 4 | 0.0 | 3.0 | 0.00 | 0.00 | 0.00 | 26 | 1014.9 |
| 20260505113004 | 82 | 349 | 0.0 | 2.0 | 0.00 | 0.00 | 0.00 | 26 | 1014.9 |
| 20260505111503 | 80 | 346 | 1.0 | 3.0 | 0.00 | 0.00 | 0.00 | 26 | 1014.7 |
| 20260505101503 | 69 | 360 | 0.0 | 1.0 | 0.00 | 0.00 | 0.00 | 26 | 1014.1 |
| 20260505100004 | 68 | 0 | 0.0 | 0.0 | 0.00 | 0.00 | 0.00 | 26 | 1014.0 |
| 20260505094503 | 67 | 0 | 0.0 | 0.0 | 0.00 | 0.00 | 0.00 | 26 | 1013.6 |
| 20260505093004 | 67 | 360 | 0.0 | 2.0 | 0.00 | 0.00 | 0.00 | 26 | 1013.3 |
| 20260505091503 | 67 | 360 | 0.0 | 1.0 | 0.00 | 0.00 | 0.00 | 26 | 1013.1 |
| 20260505090004 | 67 | 360 | 0.0 | 1.0 | 0.00 | 0.00 | 0.00 | 26 | 1013.1 |
| 20260505084503 | 67 | 360 | 0.0 | 2.0 | 0.00 | 0.00 | 0.00 | 26 | 1012.7 |
| 20260505083003 | 67 | 360 | 0.0 | 1.0 | 0.00 | 0.00 | 0.00 | 26 | 1012.6 |
| 20260505081503 | 67 | 360 | 0.0 | 2.0 | 0.00 | 0.00 | 0.00 | 26 | 1012.4 |
| 20260505080003 | 67 | 360 | 0.0 | 1.0 | 0.00 | 0.00 | 0.00 | 26 | 1012.5 |
| 20260505074503 | 67 | 360 | 0.0 | 1.0 | 0.00 | 0.00 | 0.00 | 26 | 1012.4 |
| 20260505073003 | 67 | 0 | 0.0 | 0.0 | 0.00 | 0.00 | 0.00 | 26 | 1012.4 |
| 20260505071503 | 68 | 360 | 0.0 | 1.0 | 0.00 | 0.00 | 0.00 | 26 | 1012.4 |
| 20260505070003 | 68 | 360 | 0.0 | 2.0 | 0.00 | 0.00 | 0.00 | 26 | 1012.4 |
| 20260505064503 | 68 | 360 | 0.0 | 2.0 | 0.00 | 0.00 | 0.00 | 26 | 1012.7 |
| 20260505063003 | 68 | 360 | 0.0 | 1.0 | 0.00 | 0.00 | 0.00 | 26 | 1012.8 |
| 20260505061503 | 68 | 360 | 0.0 | 2.0 | 0.00 | 0.00 | 0.00 | 26 | 1013.0 |
| 20260505060003 | 68 | 2 | 0.0 | 2.0 | 0.00 | 0.00 | 0.00 | 26 | 1013.2 |
| 20260505054504 | 68 | 360 | 0.0 | 1.0 | 0.00 | 0.00 | 0.00 | 26 | 1011.6 |
| 20260505053003 | 68 | 360 | 0.0 | 1.0 | 0.00 | 0.00 | 0.00 | 26 | 1011.5 |
| 20260505051503 | 68 | 360 | 0.0 | 1.0 | 0.00 | 0.00 | 0.00 | 26 | 1011.5 |
| 20260505041503 | 69 | 360 | 0.0 | 1.0 | 0.00 | 0.00 | 0.00 | 26 | 1011.9 |
| 20260505040004 | 69 | 360 | 0.0 | 2.0 | 0.00 | 0.00 | 0.00 | 26 | 1012.0 |
| 20260505034503 | 69 | 360 | 0.0 | 1.0 | 0.00 | 0.00 | 0.00 | 26 | 1012.0 |
| 20260505033003 | 69 | 360 | 0.0 | 2.0 | 0.00 | 0.00 | 0.00 | 26 | 1012.2 |
| 20260505031503 | 69 | 360 | 0.0 | 2.0 | 0.00 | 0.00 | 0.00 | 26 | 1012.3 |
| 20260505030004 | 69 | 0 | 0.0 | 0.0 | 0.00 | 0.00 | 0.00 | 26 | 1012.4 |
| 20260505024503 | 69 | 360 | 0.0 | 1.0 | 0.00 | 0.00 | 0.00 | 26 | 1012.4 |
| 20260505023003 | 69 | 360 | 0.0 | 1.0 | 0.00 | 0.00 | 0.00 | 26 | 1012.3 |
| 20260505021503 | 70 | 360 | 0.0 | 1.0 | 0.00 | 0.00 | 0.00 | 26 | 1012.2 |
| 20260505020003 | 69 | 17 | 0.0 | 2.0 | 0.00 | 0.00 | 0.00 | 26 | 1012.3 |
| 20260505014504 | 70 | 352 | 0.0 | 2.0 | 0.00 | 0.00 | 0.00 | 26 | 1012.3 |
| 20260505013004 | 71 | 360 | 0.0 | 2.0 | 0.00 | 0.00 | 0.00 | 26 | 1012.3 |
| 20260505011504 | 71 | 360 | 0.0 | 2.0 | 0.00 | 0.00 | 0.00 | 26 | 1012.3 |
| 20260505010004 | 71 | 360 | 0.0 | 1.0 | 0.00 | 0.00 | 0.00 | 26 | 1012.4 |
| 20260505004504 | 71 | 360 | 0.0 | 1.0 | 0.00 | 0.00 | 0.00 | 26 | 1012.3 |
| 20260505003004 | 71 | 360 | 0.0 | 1.0 | 0.00 | 0.00 | 0.00 | 26 | 1012.4 |
| 20260505001504 | 71 | 360 | 0.0 | 2.0 | 0.00 | 0.00 | 0.00 | 26 | 1012.2 |
| 20260505000004 | 71 | 360 | 0.0 | 2.0 | 0.00 | 0.00 | 0.00 | 26 | 1012.2 |
| 20260504234504 | 71 | 360 | 0.0 | 2.0 | 0.00 | 0.00 | 0.00 | 26 | 1012.2 |
| 20260504233004 | 72 | 356 | 1.0 | 3.0 | 0.00 | 0.00 | 0.00 | 26 | 1011.9 |
| 20260504231504 | 72 | 9 | 0.0 | 3.0 | 0.00 | 0.00 | 0.00 | 26 | 1012.0 |
| 20260504230004 | 72 | 73 | 0.0 | 2.0 | 0.00 | 0.00 | 0.00 | 26 | 1012.0 |
| 20260504224504 | 73 | 135 | 0.0 | 1.0 | 0.00 | 0.00 | 0.00 | 26 | 1011.9 |
| 20260504223004 | 73 | 135 | 0.0 | 1.0 | 0.00 | 0.00 | 0.00 | 26 | 1011.9 |
| 20260504221504 | 73 | 135 | 0.0 | 1.0 | 0.00 | 0.00 | 0.00 | 26 | 1011.6 |
| 20260504220004 | 74 | 135 | 0.0 | 2.0 | 0.00 | 0.00 | 0.00 | 26 | 1011.4 |
| 20260504214504 | 74 | 27 | 0.0 | 2.0 | 0.00 | 0.00 | 0.00 | 26 | 1011.3 |
| 20260504213004 | 74 | 178 | 0.0 | 2.0 | 0.00 | 0.00 | 0.00 | 26 | 1011.2 |
| 20260504211504 | 74 | 135 | 0.0 | 2.0 | 0.00 | 0.00 | 0.00 | 26 | 1010.9 |
| 20260504210004 | 74 | 160 | 0.0 | 2.0 | 0.00 | 0.00 | 0.00 | 26 | 1010.9 |
| 20260504204504 | 74 | 315 | 0.0 | 2.0 | 0.00 | 0.00 | 0.00 | 26 | 1010.9 |
| 20260504203004 | 74 | 135 | 0.0 | 2.0 | 0.00 | 0.00 | 0.00 | 26 | 1010.6 |
| 20260504201504 | 74 | 132 | 0.0 | 2.0 | 0.00 | 0.00 | 0.00 | 26 | 1010.6 |
| 20260504200004 | 74 | 88 | 0.0 | 3.0 | 0.00 | 0.00 | 0.00 | 26 | 1010.7 |
| 20260504194503 | 75 | 165 | 0.0 | 3.0 | 0.00 | 0.00 | 0.00 | 26 | 1010.6 |
| 20260504193003 | 76 | 129 | 0.0 | 4.0 | 0.00 | 0.00 | 0.00 | 26 | 1010.7 |
| 20260504191503 | 76 | 158 | 0.0 | 3.0 | 0.00 | 0.00 | 0.00 | 26 | 1010.8 |
| 20260504190004 | 76 | 133 | 0.0 | 6.0 | 0.00 | 0.01 | 0.00 | 26 | 1010.9 |
| 20260504184503 | 77 | 179 | 2.0 | 4.0 | 0.00 | 0.01 | 0.00 | 26 | 1010.7 |
| 20260504183003 | 78 | 188 | 0.0 | 3.0 | 0.00 | 0.19 | 0.00 | 26 | 1010.3 |
| 20260504181503 | 78 | 210 | 1.0 | 4.0 | 0.00 | 0.19 | 0.00 | 26 | 1010.3 |
| 20260504180004 | 79 | 86 | 2.0 | 4.0 | 0.00 | 0.19 | 0.00 | 26 | 1010.4 |
| 20260504174503 | 83 | 35 | 0.0 | 4.0 | 0.00 | 0.19 | 0.00 | 26 | 1010.3 |
| 20260504173004 | 85 | 217 | 1.0 | 4.0 | 0.00 | 0.19 | 0.00 | 26 | 1010.4 |
| 20260504171503 | 85 | 172 | 1.0 | 4.0 | 0.00 | 0.19 | 0.00 | 26 | 1010.6 |